Location: Seminole
(32.7190°N, 102.6440°W)
Time: 10:13:31
(UTC-05:00)

Meteor 2-10 - Visible Passes

Search period start: 29 March 2017 00:00
Search period end: 08 April 2017 00:00
Orbit: 739 x 868 km, 81.2° (Epoch: 27 March)

Date Brightness Start Highest point End Pass type
(mag) Time Alt. Az. Time Alt. Az. Time Alt. Az.
03 Apr 7.0 00:18:29 12° N 00:18:29 12° N 00:18:53 10° N visible
03 Apr 6.7 23:52:10 15° N 23:52:10 15° N 23:53:08 10° N visible
04 Apr 6.4 23:25:47 18° N 23:25:47 18° N 23:27:13 10° N visible
05 Apr 6.1 22:59:20 21° NNE 22:59:20 21° NNE 23:01:09 10° NNE visible
06 Apr 7.1 00:40:18 11° NW 00:40:18 11° NW 00:40:37 10° NW visible
06 Apr 5.8 22:32:49 22° NE 22:32:49 22° NE 22:34:54 10° NNE visible
07 Apr 6.7 00:13:47 17° NW 00:13:47 17° NW 00:15:47 10° NNW visible
07 Apr 5.8 22:06:11 21° NE 22:06:11 21° NE 22:08:28 10° NNE visible
07 Apr 6.1 23:47:08 26° NW 23:47:08 26° NW 23:50:24 10° NNW visible
